Location: Izdebno
(52.6670°N, 16.2170°E)
Time: 04:47:19
(UTC+02:00)

Transit 2A - Pass Details

Date: 24 February 2024
Orbit: 596 x 956 km, 66.7° (Epoch: 21 April)

Event Time Altitude Azimuth Distance (km) Brightness Sun altitude
Rises 21:23:14 0° 244° (WSW) 2,841 9.3 -35.4°
Enters shadow 21:24:17 - 247° (WSW) 2,432 8.9 -35.6°
Reaches altitude 10° 21:25:36 10° 253° (WSW) 1,936 - -35.7°
Maximum altitude 21:29:37 37° 322° (NW) 949 - -36.2°
Drops below altitude 10° 21:33:45 10° 30° (NNE) 1,994 - -36.7°
Sets 21:36:13 0° 39° (NE) 2,940 - -37.0°
